Regional Weather Roundup
Issued by NWS

Home | Current Version | Previous Version | Text Only | Print | Product List | Glossary On
Versions: 1 2 3 4 5 6 7 8 9 10 11 12 13 14 15 16 17 18 19 20 21 22 23 24 25 26 27 28 29 30 31 32 33 34 35 36 37 38 39 40 41 42 43 44 45 46 47 48 49 50
454
ASUS42 KKEY 062210
RWRKEY

FLORIDA REGIONAL WEATHER ROUNDUP FOR THE FLORIDA KEYS
NATIONAL WEATHER SERVICE KEY WEST FLORIDA
500 PM EST TUE DEC 06 2016

...SOUTH FLORIDA AND THE KEYS...

CITY           SKY/WX    TMP DP  RH WIND       PRES   REMARKS
FORT MYERS     MOCLDY    77  74  90 W15       29.91R
SW REGIONAL AP HVY RAIN  78  75  90 W15G24    29.93R FOG
NAPLES         FAIR      78  75  90 SW15      29.92R
MIAMI          MOCLDY    83  73  72 S10       29.93S
WEST KENDALL   MOCLDY    82  73  74 S10       29.93S
HOMESTEAD      NOT AVBL
MARATHON       CLEAR     83  76  79 S5        29.95R HX  91
BOCA CHICA NAS MOCLDY    80  75  84 SW9       29.95R
KEY WEST INTL  MOCLDY    81  77  88 SW6       29.95R

...INTERNATIONAL WEATHER...

CITY           SKY/WX    TMP DP  RH WIND       PRES   REMARKS
NASSAU BAHAMAS PTCLDY    79  72  78 S6        29.99R
CANCUN MEXICO  MOSUNNY   84  77  79 SE13      29.90R HX  94
COZUMEL MEXICO MOSUNNY   86  77  74 S8        29.88R HX  97

ADJACENT COASTAL WATERS...

STATION/POSITION TIME  SKY/WX   TEMP    WIND        PRES    WAVE
                                AIR SEA DIR/SP/G            HT/PER
                 (UTC)          (F)     (DEG/KT/KT) (MB)    (FT/S)
PULASKI SHOAL LI 2200            80     210/ 10/ 10 1013.9R
SAND KEY         2150            79     240/  5/  6 1014.7R
LONG KEY         2100            80 79  240/  6/  8 1014.4S
MOLASSES REEF    2100            80 79  200/ 13/ 14 1014.4
FOWEY ROCKS      2100            79 78  190/ 21/ 22 1014.3S

$$




USA.gov is the U.S. government's official web portal to all federal, state and local government web resources and services.